^^
Station Historical Data
Daily Summary for June 9, 2017 Units:  English    Metric   Both
« Previous Day
Next Day »
Daily Weekly Monthly Yearly Custom
  High: Low: Average:
Temperature: 81.2 °F 47.4 °F 66.1 °F
Dew Point: 56.1 °F 44.3 °F 50.1 °F
Humidity: 89 % 34 % 60 %
Wind Speed: 12.3 mph 0.0 mph 1.5 mph
Wind Gust: 19.6 mph - -
Wind:- - West
Pressure: 29.91 in 29.76 in -
Precipitation: 0.00 in    
Historical Graphs
 
 
Tabular Data for June 9, 2017
Time Temperature Dew Point Pressure Wind Wind Speed Wind Gust Humidity Rainfall Rate (Hourly) solar Conditions
00:00 54.7 °F 45.1 °F 29.82 in Calm     70 % 0.00 in 0.0 W/m2 CLR
00:05 54.7 °F 45.1 °F 29.82 in Calm     70 % 0.00 in 0.0 W/m2 CLR
00:10 54.8 °F 45.2 °F 29.82 in Calm     70 % 0.00 in 0.0 W/m2 CLR
00:15 54.5 °F 45.3 °F 29.82 in Calm     71 % 0.00 in 0.0 W/m2 CLR
00:20 54.5 °F 45.3 °F 29.82 in Calm     71 % 0.00 in 0.0 W/m2 CLR
00:25 54.3 °F 45.1 °F 29.82 in Calm     71 % 0.00 in 0.0 W/m2 CLR
00:30 54.2 °F 45.0 °F 29.82 in Calm     71 % 0.00 in 0.0 W/m2 CLR
00:35 53.9 °F 45.1 °F 29.82 in Calm     72 % 0.00 in 0.0 W/m2 CLR
00:40 53.5 °F 45.4 °F 29.82 in Calm     74 % 0.00 in 0.0 W/m2 CLR
00:45 53.3 °F 45.2 °F 29.82 in Calm     74 % 0.00 in 0.0 W/m2 CLR
00:50 52.8 °F 45.4 °F 29.82 in Calm     76 % 0.00 in 0.0 W/m2 CLR
00:55 52.6 °F 45.6 °F 29.82 in Calm     77 % 0.00 in 0.0 W/m2 CLR
00:56 52.6 °F 45.6 °F 29.82 in Calm     77 % 0.00 in 0.0 W/m2 CLR
01:01 52.3 °F 45.6 °F 29.81 in Calm     78 % 0.00 in 0.0 W/m2 CLR
01:06 52.0 °F 45.7 °F 29.81 in Calm     79 % 0.00 in 0.0 W/m2 CLR
01:11 51.9 °F 45.9 °F 29.81 in Calm     80 % 0.00 in 0.0 W/m2 CLR
01:16 51.7 °F 45.7 °F 29.81 in Calm     80 % 0.00 in 0.0 W/m2 CLR
01:21 51.7 °F 46.1 °F 29.81 in Calm     81 % 0.00 in 0.0 W/m2 CLR
01:26 51.3 °F 46.0 °F 29.81 in Calm     82 % 0.00 in 0.0 W/m2 CLR
01:31 51.3 °F 46.0 °F 29.81 in Calm     82 % 0.00 in 0.0 W/m2 CLR
01:36 51.4 °F 46.4 °F 29.81 in Calm     83 % 0.00 in 0.0 W/m2 CLR
01:41 51.2 °F 46.2 °F 29.81 in Calm     83 % 0.00 in 0.0 W/m2 CLR
01:46 51.3 °F 46.3 °F 29.81 in Calm     83 % 0.00 in 0.0 W/m2 CLR
01:51 51.1 °F 46.1 °F 29.81 in Calm     83 % 0.00 in 0.0 W/m2 CLR
01:56 51.1 °F 46.1 °F 29.81 in Calm     83 % 0.00 in 0.0 W/m2 CLR
02:01 51.1 °F 46.1 °F 29.80 in Calm     83 % 0.00 in 0.0 W/m2 CLR
02:06 51.1 °F 45.8 °F 29.80 in Calm     82 % 0.00 in 0.0 W/m2 CLR
02:11 51.0 °F 46.0 °F 29.80 in Calm     83 % 0.00 in 0.0 W/m2 CLR
02:16 50.7 °F 45.7 °F 29.80 in Calm     83 % 0.00 in 0.0 W/m2 CLR
02:22 50.5 °F 45.5 °F 29.80 in Calm     83 % 0.00 in 0.0 W/m2 CLR
02:27 50.3 °F 45.6 °F 29.80 in Calm     84 % 0.00 in 0.0 W/m2 CLR
02:30 50.3 °F 45.6 °F 29.79 in Calm     84 % 0.00 in 0.0 W/m2 CLR
02:35 50.3 °F 45.6 °F 29.79 in Calm     84 % 0.00 in 0.0 W/m2 CLR
02:40 50.2 °F 45.6 °F 29.79 in Calm     84 % 0.00 in 0.0 W/m2 CLR
02:45 50.0 °F 45.4 °F 29.79 in Calm     84 % 0.00 in 0.0 W/m2 CLR
02:51 49.8 °F 45.5 °F 29.79 in Calm     85 % 0.00 in 0.0 W/m2 CLR
02:56 49.5 °F 45.2 °F 29.78 in Calm     85 % 0.00 in 0.0 W/m2 CLR
03:01 49.4 °F 45.4 °F 29.78 in Calm     86 % 0.00 in 0.0 W/m2 CLR
03:06 49.3 °F 45.3 °F 29.78 in Calm     86 % 0.00 in 0.0 W/m2 CLR
03:11 49.2 °F 45.2 °F 29.78 in Calm     86 % 0.00 in 0.0 W/m2 CLR
03:16 49.2 °F 45.2 °F 29.78 in Calm     86 % 0.00 in 0.0 W/m2 CLR
03:21 49.0 °F 45.3 °F 29.78 in Calm     87 % 0.00 in 0.0 W/m2 CLR
03:26 48.7 °F 45.0 °F 29.78 in Calm     87 % 0.00 in 0.0 W/m2 CLR
03:31 48.6 °F 44.9 °F 29.78 in Calm     87 % 0.00 in 0.0 W/m2 CLR
03:36 48.6 °F 44.9 °F 29.77 in Calm     87 % 0.00 in 0.0 W/m2 CLR
03:41 48.5 °F 44.8 °F 29.77 in Calm     87 % 0.00 in 0.0 W/m2 CLR
03:46 48.6 °F 44.9 °F 29.77 in Calm     87 % 0.00 in 0.0 W/m2 CLR
03:51 48.4 °F 45.0 °F 29.77 in Calm     88 % 0.00 in 0.0 W/m2 CLR
03:56 48.4 °F 45.0 °F 29.77 in Calm     88 % 0.00 in 0.0 W/m2 CLR
04:01 48.5 °F 45.1 °F 29.77 in Calm     88 % 0.00 in 0.0 W/m2 CLR
04:06 48.4 °F 45.0 °F 29.77 in Calm     88 % 0.00 in 0.0 W/m2 CLR
04:11 48.2 °F 44.8 °F 29.77 in Calm     88 % 0.00 in 0.0 W/m2 CLR
04:16 48.2 °F 44.8 °F 29.76 in Calm     88 % 0.00 in 0.0 W/m2 CLR
04:21 48.0 °F 44.6 °F 29.76 in Calm     88 % 0.00 in 0.0 W/m2 CLR
04:26 47.9 °F 44.5 °F 29.77 in Calm     88 % 0.00 in 0.0 W/m2 CLR
04:31 48.0 °F 44.6 °F 29.76 in Calm     88 % 0.00 in 0.0 W/m2 CLR
04:36 47.8 °F 44.4 °F 29.76 in Calm     88 % 0.00 in 0.0 W/m2 CLR
04:41 47.9 °F 44.8 °F 29.77 in Calm     89 % 0.00 in 0.0 W/m2 CLR
04:46 48.0 °F 44.9 °F 29.77 in Calm     89 % 0.00 in 0.0 W/m2 CLR
04:51 48.0 °F 44.9 °F 29.77 in Calm     89 % 0.00 in 0.0 W/m2 CLR
04:56 47.9 °F 44.8 °F 29.76 in Calm     89 % 0.00 in 0.0 W/m2 CLR
05:01 47.9 °F 44.8 °F 29.76 in Calm     89 % 0.00 in 0.0 W/m2 CLR
05:06 47.8 °F 44.7 °F 29.76 in Calm     89 % 0.00 in 0.0 W/m2 CLR
05:11 47.7 °F 44.6 °F 29.77 in Calm     89 % 0.00 in 0.0 W/m2 CLR
05:16 47.5 °F 44.4 °F 29.77 in Calm     89 % 0.00 in 0.0 W/m2 CLR
05:21 47.4 °F 44.3 °F 29.77 in Calm     89 % 0.00 in 0.0 W/m2 CLR
05:26 47.5 °F 44.4 °F 29.77 in Calm     89 % 0.00 in 5.0 W/m2 CLR
05:31 47.5 °F 44.4 °F 29.77 in Calm     89 % 0.00 in 9.0 W/m2 CLR
05:36 47.6 °F 44.5 °F 29.77 in Calm     89 % 0.00 in 11.0 W/m2 CLR
05:42 47.6 °F 44.5 °F 29.77 in Calm     89 % 0.00 in 12.0 W/m2 CLR
05:47 47.5 °F 44.4 °F 29.77 in Calm     89 % 0.00 in 14.0 W/m2 CLR
05:52 47.6 °F 44.5 °F 29.77 in Calm     89 % 0.00 in 18.0 W/m2 CLR
05:57 47.8 °F 44.7 °F 29.77 in Calm     89 % 0.00 in 21.0 W/m2 CLR
06:02 47.9 °F 44.8 °F 29.77 in Calm     89 % 0.00 in 23.0 W/m2 CLR
06:07 48.1 °F 45.0 °F 29.77 in Calm     89 % 0.00 in 26.0 W/m2 CLR
06:12 48.2 °F 45.1 °F 29.77 in Calm     89 % 0.00 in 30.0 W/m2 CLR
06:17 48.3 °F 45.2 °F 29.77 in Calm     89 % 0.00 in 35.0 W/m2 CLR
06:22 48.5 °F 45.4 °F 29.77 in Calm     89 % 0.00 in 37.0 W/m2 CLR
06:27 48.8 °F 45.7 °F 29.77 in Calm     89 % 0.00 in 33.0 W/m2 CLR
06:32 49.1 °F 46.0 °F 29.77 in Calm     89 % 0.00 in 33.0 W/m2 CLR
06:37 49.3 °F 45.9 °F 29.77 in Calm     88 % 0.00 in 35.0 W/m2 CLR
06:42 49.4 °F 46.0 °F 29.77 in Calm     88 % 0.00 in 30.0 W/m2 CLR
06:47 49.5 °F 46.1 °F 29.77 in Calm     88 % 0.00 in 33.0 W/m2 CLR
06:52 49.6 °F 46.2 °F 29.77 in Calm     88 % 0.00 in 40.0 W/m2 CLR
06:57 50.0 °F 46.6 °F 29.77 in Calm     88 % 0.00 in 47.0 W/m2 CLR
07:02 50.4 °F 47.0 °F 29.78 in Calm     88 % 0.00 in 56.0 W/m2 CLR
07:07 50.6 °F 46.9 °F 29.78 in Calm     87 % 0.00 in 76.0 W/m2 CLR
07:12 51.1 °F 47.4 °F 29.78 in Calm     87 % 0.00 in 84.0 W/m2 CLR
07:17 51.7 °F 48.0 °F 29.78 in Calm     87 % 0.00 in 91.0 W/m2 CLR
07:22 52.3 °F 48.2 °F 29.78 in Calm     86 % 0.00 in 100.0 W/m2 CLR
07:27 53.0 °F 48.6 °F 29.78 in Calm     85 % 0.00 in 98.0 W/m2 CLR
07:32 53.4 °F 49.0 °F 29.78 in Calm     85 % 0.00 in 97.0 W/m2 CLR
07:37 53.8 °F 49.1 °F 29.78 in Calm     84 % 0.00 in 90.0 W/m2 CLR
07:42 54.2 °F 49.5 °F 29.78 in Calm     84 % 0.00 in 88.0 W/m2 CLR
07:47 54.6 °F 49.9 °F 29.78 in Calm   1.2 mph 84 % 0.00 in 84.0 W/m2 CLR
07:52 55.5 °F 50.7 °F 29.78 in West 1.5 mph 6.9 mph 84 % 0.00 in 76.0 W/m2 CLR
07:57 56.1 °F 51.0 °F 29.79 in West 2.9 mph 6.9 mph 83 % 0.00 in 67.0 W/m2 CLR
08:02 56.3 °F 50.9 °F 29.79 in SW 1.8 mph 6.9 mph 82 % 0.00 in 63.0 W/m2 CLR
08:07 56.5 °F 51.1 °F 29.79 in WSW 0.5 mph 8.1 mph 82 % 0.00 in 60.0 W/m2 CLR
08:12 56.9 °F 51.5 °F 29.79 in West 0.5 mph 8.1 mph 82 % 0.00 in 60.0 W/m2 CLR
08:17 57.3 °F 51.5 °F 29.79 in SW 0.3 mph 10.4 mph 81 % 0.00 in 83.0 W/m2 CLR
08:22 57.7 °F 51.9 °F 29.79 in WSW 3.7 mph 10.4 mph 81 % 0.00 in 100.0 W/m2 CLR
08:27 57.9 °F 52.1 °F 29.79 in West 2.6 mph 11.5 mph 81 % 0.00 in 49.0 W/m2 CLR
08:32 58.1 °F 52.0 °F 29.79 in West 1.4 mph 11.5 mph 80 % 0.00 in 44.0 W/m2 CLR
08:37 58.5 °F 52.4 °F 29.79 in SW 0.2 mph 10.4 mph 80 % 0.00 in 46.0 W/m2 CLR
08:42 58.9 °F 52.7 °F 29.79 in West 1.9 mph 8.1 mph 80 % 0.00 in 47.0 W/m2 CLR
08:47 59.3 °F 53.1 °F 29.79 in Calm   5.8 mph 80 % 0.00 in 47.0 W/m2 CLR
08:52 59.7 °F 52.8 °F 29.79 in West 2.8 mph 10.4 mph 78 % 0.00 in 49.0 W/m2 CLR
08:58 60.2 °F 53.3 °F 29.79 in SW 1.7 mph 10.4 mph 78 % 0.00 in 63.0 W/m2 CLR
09:03 60.7 °F 53.4 °F 29.80 in Calm   6.9 mph 77 % 0.00 in 90.0 W/m2 CLR
09:08 61.6 °F 54.0 °F 29.80 in WSW 1.4 mph 5.8 mph 76 % 0.00 in 478.0 W/m2 CLR
09:13 62.5 °F 54.5 °F 29.80 in West 0.9 mph 8.1 mph 75 % 0.00 in 621.0 W/m2 CLR
09:18 63.1 °F 54.3 °F 29.80 in WSW 1.7 mph 8.1 mph 73 % 0.00 in 638.0 W/m2 CLR
09:23 63.8 °F 54.2 °F 29.80 in WSW 0.1 mph 5.8 mph 71 % 0.00 in 659.0 W/m2 CLR
09:28 64.7 °F 54.7 °F 29.80 in WSW 2.1 mph 5.8 mph 70 % 0.00 in 647.0 W/m2 CLR
09:33 65.2 °F 54.4 °F 29.80 in WSW 2.4 mph 10.4 mph 68 % 0.00 in 642.0 W/m2 CLR
09:38 65.7 °F 54.4 °F 29.80 in Calm   10.4 mph 67 % 0.00 in 599.0 W/m2 CLR
09:43 65.8 °F 54.9 °F 29.80 in SW 2.4 mph 5.8 mph 68 % 0.00 in 499.0 W/m2 CLR
09:48 66.2 °F 54.5 °F 29.80 in WNW 0.4 mph 5.8 mph 66 % 0.00 in 357.0 W/m2 CLR
09:53 66.5 °F 54.8 °F 29.81 in WSW 2.5 mph 5.8 mph 66 % 0.00 in 728.0 W/m2 CLR
09:55 66.6 °F 54.9 °F 29.80 in West 1.6 mph 5.8 mph 66 % 0.00 in 733.0 W/m2 CLR
10:00 68.1 °F 55.0 °F 29.80 in WNW 3.4 mph 8.1 mph 63 % 0.00 in 671.0 W/m2 CLR
10:05 68.7 °F 55.6 °F 29.80 in NW 0.8 mph 8.1 mph 63 % 0.00 in 758.0 W/m2 CLR
10:10 69.3 °F 55.3 °F 29.80 in Calm   9.2 mph 61 % 0.00 in 766.0 W/m2 CLR
10:15 69.2 °F 55.2 °F 29.80 in West 2.2 mph 9.2 mph 61 % 0.00 in 773.0 W/m2 CLR
10:20 68.6 °F 55.1 °F 29.80 in SSW 2.8 mph 8.1 mph 62 % 0.00 in 786.0 W/m2 CLR
10:23 69.2 °F 56.1 °F 29.80 in NNW 3.0 mph 8.1 mph 63 % 0.00 in 793.0 W/m2 CLR
10:28 70.8 °F 55.8 °F 29.80 in WNW 3.7 mph 9.2 mph 59 % 0.00 in 807.0 W/m2 CLR
10:33 71.6 °F 54.6 °F 29.81 in NNW 5.8 mph 9.2 mph 55 % 0.00 in 821.0 W/m2 CLR
10:38 71.7 °F 54.2 °F 29.80 in NW 1.4 mph 10.4 mph 54 % 0.00 in 833.0 W/m2 CLR
10:43 71.6 °F 54.1 °F 29.80 in SW 1.2 mph 10.4 mph 54 % 0.00 in 840.0 W/m2 CLR
10:48 71.4 °F 53.4 °F 29.80 in WNW 1.5 mph 8.1 mph 53 % 0.00 in 851.0 W/m2 CLR
10:53 71.7 °F 54.2 °F 29.80 in North 0.5 mph 8.1 mph 54 % 0.00 in 861.0 W/m2 CLR
10:58 72.7 °F 54.1 °F 29.81 in NNW 2.7 mph 8.1 mph 52 % 0.00 in 872.0 W/m2 CLR
11:03 72.2 °F 54.6 °F 29.81 in Calm   8.1 mph 54 % 0.00 in 875.0 W/m2 CLR
11:08 72.1 °F 53.5 °F 29.81 in Calm   6.9 mph 52 % 0.00 in 884.0 W/m2 CLR
11:13 73.2 °F 54.0 °F 29.81 in WNW 1.5 mph 6.9 mph 51 % 0.00 in 896.0 W/m2 CLR
11:18 74.4 °F 54.0 °F 29.81 in WNW 8.5 mph 8.5 mph 49 % 0.00 in 947.0 W/m2 CLR
11:23 74.6 °F 53.0 °F 29.81 in NE 2.2 mph 11.5 mph 47 % 0.00 in 158.0 W/m2 CLR
11:28 74.5 °F 54.6 °F 29.81 in NW 5.6 mph 11.5 mph 50 % 0.00 in 911.0 W/m2 CLR
11:33 74.4 °F 54.0 °F 29.81 in NW 1.6 mph 11.5 mph 49 % 0.00 in 926.0 W/m2 CLR
11:38 75.2 °F 54.2 °F 29.81 in WNW 6.7 mph 11.5 mph 48 % 0.00 in 933.0 W/m2 CLR
11:43 75.4 °F 52.6 °F 29.81 in WNW 0.8 mph 10.4 mph 45 % 0.00 in 939.0 W/m2 CLR
11:48 75.5 °F 53.9 °F 29.80 in WNW 4.8 mph 10.4 mph 47 % 0.00 in 944.0 W/m2 CLR
11:54 76.5 °F 53.6 °F 29.81 in NW 3.6 mph 11.5 mph 45 % 0.00 in 953.0 W/m2 CLR
11:59 75.9 °F 55.4 °F 29.81 in NNW 4.7 mph 11.5 mph 49 % 0.00 in 951.0 W/m2 CLR
12:04 75.9 °F 54.2 °F 29.81 in WNW 3.4 mph 10.4 mph 47 % 0.00 in 965.0 W/m2 CLR
12:09 75.3 °F 53.7 °F 29.81 in North 1.9 mph 10.4 mph 47 % 0.00 in 1011.0 W/m2 CLR
12:14 75.6 °F 54.5 °F 29.81 in WNW 1.0 mph 9.2 mph 48 % 0.00 in 976.0 W/m2 CLR
12:19 76.7 °F 52.5 °F 29.81 in West 4.5 mph 11.5 mph 43 % 0.00 in 974.0 W/m2 CLR
12:24 77.0 °F 52.8 °F 29.81 in WNW 2.0 mph 11.5 mph 43 % 0.00 in 984.0 W/m2 CLR
12:29 77.1 °F 52.9 °F 29.80 in NW 0.5 mph 9.2 mph 43 % 0.00 in 990.0 W/m2 CLR
12:34 77.1 °F 51.6 °F 29.81 in WNW 7.5 mph 15.0 mph 41 % 0.00 in 981.0 W/m2 CLR
12:39 78.3 °F 52.7 °F 29.80 in WNW 3.0 mph 15.0 mph 41 % 0.00 in 990.0 W/m2 CLR
12:44 78.9 °F 53.2 °F 29.80 in WNW 11.1 mph 18.4 mph 41 % 0.00 in 1039.0 W/m2 CLR
12:49 78.1 °F 51.8 °F 29.80 in WNW 4.3 mph 18.4 mph 40 % 0.00 in 990.0 W/m2 CLR
12:59 78.7 °F 52.3 °F 29.80 in West 6.9 mph 12.7 mph 40 % 0.00 in 216.0 W/m2 CLR
13:04 77.8 °F 51.5 °F 29.80 in West 4.2 mph 12.7 mph 40 % 0.00 in 309.0 W/m2 SCT
13:09 77.6 °F 51.4 °F 29.80 in WNW 3.2 mph 15.0 mph 40 % 0.00 in 1078.0 W/m2 SCT
13:14 78.7 °F 51.7 °F 29.80 in WSW 4.1 mph 15.0 mph 39 % 0.00 in 1079.0 W/m2 SCT
13:19 78.7 °F 51.7 °F 29.80 in WNW 2.3 mph 15.0 mph 39 % 0.00 in 1100.0 W/m2 SCT
13:24 79.5 °F 52.4 °F 29.80 in WNW 8.8 mph 15.0 mph 39 % 0.00 in 1183.0 W/m2 SCT
13:29 79.3 °F 52.2 °F 29.80 in NW 2.5 mph 15.0 mph 39 % 0.00 in 202.0 W/m2 SCT
13:34 77.6 °F 50.7 °F 29.80 in NW 7.0 mph 15.0 mph 39 % 0.00 in 171.0 W/m2 SCT
13:39 77.7 °F 50.8 °F 29.80 in NW 2.6 mph 12.7 mph 39 % 0.00 in 1123.0 W/m2 SCT
13:44 77.4 °F 49.8 °F 29.80 in NW 4.6 mph 13.8 mph 38 % 0.00 in 163.0 W/m2 SCT
13:49 77.6 °F 52.0 °F 29.80 in NNW 4.4 mph 13.8 mph 41 % 0.00 in 1143.0 W/m2 SCT
13:54 78.9 °F 52.5 °F 29.80 in NNW 1.8 mph 12.7 mph 40 % 0.00 in 316.0 W/m2 SCT
13:59 78.0 °F 53.0 °F 29.80 in NW 2.7 mph 12.7 mph 42 % 0.00 in 998.0 W/m2 SCT
14:04 79.1 °F 52.7 °F 29.80 in WNW 5.3 mph 15.0 mph 40 % 0.00 in 984.0 W/m2 SCT
14:09 79.5 °F 50.9 °F 29.79 in NW 5.4 mph 15.0 mph 37 % 0.00 in 962.0 W/m2 SCT
14:14 79.6 °F 52.5 °F 29.79 in WNW 7.9 mph 16.1 mph 39 % 0.00 in 965.0 W/m2 SCT
14:16 80.0 °F 52.8 °F 29.79 in NW 5.6 mph 16.1 mph 39 % 0.00 in 953.0 W/m2 SCT
14:22 80.1 °F 52.2 °F 29.79 in North 9.6 mph 16.1 mph 38 % 0.00 in 935.0 W/m2 SCT
14:27 80.2 °F 51.6 °F 29.79 in SSW 3.4 mph 15.0 mph 37 % 0.00 in 932.0 W/m2 SCT
14:32 80.0 °F 52.1 °F 29.78 in SW 0.7 mph 13.8 mph 38 % 0.00 in 930.0 W/m2 SCT
14:37 80.5 °F 51.8 °F 29.79 in NW 3.5 mph 13.8 mph 37 % 0.00 in 951.0 W/m2 SCT
14:42 80.0 °F 51.4 °F 29.78 in WNW 2.0 mph 13.8 mph 37 % 0.00 in 923.0 W/m2 SCT
14:47 80.2 °F 51.6 °F 29.79 in WSW 2.9 mph 12.7 mph 37 % 0.00 in 909.0 W/m2 SCT
14:52 79.8 °F 51.2 °F 29.78 in WNW 1.2 mph 13.8 mph 37 % 0.00 in 909.0 W/m2 SCT
14:57 79.8 °F 50.5 °F 29.78 in West 2.9 mph 13.8 mph 36 % 0.00 in 868.0 W/m2 SCT
15:02 79.6 °F 51.0 °F 29.78 in NW 4.9 mph 11.5 mph 37 % 0.00 in 953.0 W/m2 FEW
15:07 80.9 °F 50.7 °F 29.78 in NW 5.9 mph 17.3 mph 35 % 0.00 in 921.0 W/m2 FEW
15:12 80.6 °F 50.4 °F 29.78 in NW 2.1 mph 17.3 mph 35 % 0.00 in 933.0 W/m2 FEW
15:17 80.4 °F 51.0 °F 29.78 in SSW 0.2 mph 13.8 mph 36 % 0.00 in 870.0 W/m2 FEW
15:22 80.3 °F 50.9 °F 29.79 in WNW 6.8 mph 15.0 mph 36 % 0.00 in 919.0 W/m2 FEW
15:27 80.8 °F 51.4 °F 29.78 in NNW 0.6 mph 15.0 mph 36 % 0.00 in 916.0 W/m2 FEW
15:32 81.2 °F 50.2 °F 29.79 in SSW 4.0 mph 15.0 mph 34 % 0.00 in 828.0 W/m2 FEW
15:37 80.3 °F 50.1 °F 29.79 in SW 1.6 mph 17.3 mph 35 % 0.00 in 816.0 W/m2 FEW
15:42 80.7 °F 52.0 °F 29.79 in NW 5.4 mph 17.3 mph 37 % 0.00 in 816.0 W/m2 FEW
15:47 81.0 °F 50.8 °F 29.79 in WNW 12.3 mph 19.6 mph 35 % 0.00 in 805.0 W/m2 FEW
15:52 80.6 °F 49.6 °F 29.79 in West 4.7 mph 19.6 mph 34 % 0.00 in 120.0 W/m2 FEW
15:57 80.4 °F 51.0 °F 29.78 in NW 9.3 mph 18.4 mph 36 % 0.00 in 800.0 W/m2 FEW
15:59 80.6 °F 50.4 °F 29.78 in NW 1.8 mph 18.4 mph 35 % 0.00 in 800.0 W/m2 FEW
16:04 80.3 °F 50.9 °F 29.78 in West 5.3 mph 18.4 mph 36 % 0.00 in 158.0 W/m2 SCT
16:09 80.4 °F 51.0 °F 29.79 in WSW 6.4 mph 17.3 mph 36 % 0.00 in 671.0 W/m2 SCT
16:14 80.0 °F 51.4 °F 29.78 in West 0.3 mph 17.3 mph 37 % 0.00 in 777.0 W/m2 SCT
16:19 80.5 °F 51.8 °F 29.79 in SW 2.0 mph 12.7 mph 37 % 0.00 in 715.0 W/m2 SCT
16:25 80.5 °F 51.1 °F 29.78 in SSW 6.4 mph 19.6 mph 36 % 0.00 in 715.0 W/m2 SCT
16:30 80.1 °F 51.5 °F 29.78 in NW 0.7 mph 19.6 mph 37 % 0.00 in 701.0 W/m2 SCT
16:35 80.6 °F 51.2 °F 29.78 in NW 1.0 mph 19.6 mph 36 % 0.00 in 668.0 W/m2 SCT
16:40 80.7 °F 52.0 °F 29.78 in SSW 4.3 mph 13.8 mph 37 % 0.00 in 647.0 W/m2 SCT
16:45 80.0 °F 51.4 °F 29.78 in West 0.8 mph 13.8 mph 37 % 0.00 in 647.0 W/m2 SCT
16:50 80.4 °F 51.7 °F 29.78 in NW 1.6 mph 13.8 mph 37 % 0.00 in 615.0 W/m2 SCT
16:55 80.3 °F 51.7 °F 29.78 in NW 5.2 mph 13.8 mph 37 % 0.00 in 601.0 W/m2 SCT
17:00 80.5 °F 51.1 °F 29.78 in West 5.9 mph 13.8 mph 36 % 0.00 in 582.0 W/m2 SCT
17:05 80.1 °F 50.7 °F 29.79 in WNW 5.6 mph 15.0 mph 36 % 0.00 in 587.0 W/m2 BKN
17:10 79.8 °F 51.9 °F 29.79 in West 1.4 mph 15.0 mph 38 % 0.00 in 571.0 W/m2 BKN
17:15 80.4 °F 51.7 °F 29.79 in WSW 4.3 mph 15.0 mph 37 % 0.00 in 557.0 W/m2 BKN
17:20 80.1 °F 51.5 °F 29.79 in SW 3.0 mph 11.5 mph 37 % 0.00 in 520.0 W/m2 BKN
17:25 79.6 °F 51.0 °F 29.79 in SW 0.4 mph 11.5 mph 37 % 0.00 in 102.0 W/m2 BKN
17:30 79.5 °F 51.7 °F 29.79 in SW 0.1 mph 11.5 mph 38 % 0.00 in 427.0 W/m2 BKN
17:35 79.9 °F 51.3 °F 29.79 in WSW 0.7 mph 9.2 mph 37 % 0.00 in 478.0 W/m2 BKN
17:40 80.0 °F 51.4 °F 29.79 in NNW 1.5 mph 12.7 mph 37 % 0.00 in 454.0 W/m2 BKN
17:46 80.1 °F 50.0 °F 29.79 in SW 5.8 mph 13.8 mph 35 % 0.00 in 429.0 W/m2 BKN
17:51 80.1 °F 50.0 °F 29.79 in WSW 5.6 mph 13.8 mph 35 % 0.00 in 415.0 W/m2 BKN
17:56 80.1 °F 50.0 °F 29.79 in WSW 3.0 mph 13.8 mph 35 % 0.00 in 403.0 W/m2 BKN
18:01 80.3 °F 50.1 °F 29.79 in WNW 2.3 mph 13.8 mph 35 % 0.00 in 385.0 W/m2 BKN
18:06 80.7 °F 50.5 °F 29.79 in NW 2.7 mph 13.8 mph 35 % 0.00 in 369.0 W/m2 FEW
18:11 80.4 °F 50.2 °F 29.79 in North 5.6 mph 15.0 mph 35 % 0.00 in 341.0 W/m2 FEW
18:16 80.1 °F 50.0 °F 29.79 in WSW 4.3 mph 15.0 mph 35 % 0.00 in 332.0 W/m2 FEW
18:21 80.2 °F 50.1 °F 29.79 in West 3.4 mph 15.0 mph 35 % 0.00 in 320.0 W/m2 FEW
18:26 80.1 °F 50.7 °F 29.79 in SW 1.8 mph 11.5 mph 36 % 0.00 in 302.0 W/m2 FEW
18:31 80.0 °F 50.6 °F 29.79 in SW 1.7 mph 12.7 mph 36 % 0.00 in 281.0 W/m2 FEW
18:36 79.7 °F 51.1 °F 29.79 in Calm   12.7 mph 37 % 0.00 in 269.0 W/m2 FEW
18:41 79.8 °F 51.2 °F 29.79 in West 0.3 mph 11.5 mph 37 % 0.00 in 248.0 W/m2 FEW
18:46 79.6 °F 51.0 °F 29.79 in Calm   11.5 mph 37 % 0.00 in 232.0 W/m2 FEW
18:51 79.4 °F 50.1 °F 29.80 in West 2.6 mph 6.9 mph 36 % 0.00 in 213.0 W/m2 FEW
18:56 79.2 °F 49.9 °F 29.80 in SW 1.6 mph 10.4 mph 36 % 0.00 in 193.0 W/m2 FEW
19:01 79.1 °F 50.6 °F 29.80 in Calm   10.4 mph 37 % 0.00 in 174.0 W/m2 CLR
19:06 79.1 °F 50.6 °F 29.81 in WNW 1.3 mph 10.4 mph 37 % 0.00 in 156.0 W/m2 CLR
19:12 79.0 °F 51.2 °F 29.81 in WSW 1.0 mph 6.9 mph 38 % 0.00 in 137.0 W/m2 CLR
19:17 78.7 °F 51.0 °F 29.81 in WSW 5.4 mph 6.9 mph 38 % 0.00 in 121.0 W/m2 CLR
19:22 78.5 °F 51.5 °F 29.81 in SSW 0.8 mph 8.1 mph 39 % 0.00 in 102.0 W/m2 CLR
19:27 78.2 °F 51.2 °F 29.81 in West 3.3 mph 8.1 mph 39 % 0.00 in 90.0 W/m2 CLR
19:32 77.9 °F 50.9 °F 29.82 in West 3.2 mph 8.1 mph 39 % 0.00 in 28.0 W/m2 CLR
19:37 77.7 °F 51.5 °F 29.82 in WSW 0.9 mph 8.1 mph 40 % 0.00 in 35.0 W/m2 CLR
19:42 77.5 °F 51.3 °F 29.82 in Calm   8.1 mph 40 % 0.00 in 33.0 W/m2 CLR
19:47 77.3 °F 51.8 °F 29.82 in West 0.1 mph 3.5 mph 41 % 0.00 in 32.0 W/m2 CLR
19:52 77.1 °F 51.6 °F 29.82 in Calm   3.5 mph 41 % 0.00 in 28.0 W/m2 CLR
19:57 76.9 °F 52.1 °F 29.82 in WSW 1.3 mph 3.5 mph 42 % 0.00 in 26.0 W/m2 CLR
20:02 76.6 °F 51.8 °F 29.82 in Calm   5.8 mph 42 % 0.00 in 23.0 W/m2 CLR
20:07 76.4 °F 52.2 °F 29.82 in Calm   5.8 mph 43 % 0.00 in 19.0 W/m2 CLR
20:12 76.1 °F 52.6 °F 29.83 in Calm   1.2 mph 44 % 0.00 in 14.0 W/m2 CLR
20:17 75.8 °F 52.3 °F 29.83 in Calm     44 % 0.00 in 11.0 W/m2 CLR
20:22 75.5 °F 52.7 °F 29.83 in Calm   1.2 mph 45 % 0.00 in 7.0 W/m2 CLR
20:27 75.2 °F 52.4 °F 29.83 in Calm   1.2 mph 45 % 0.00 in 5.0 W/m2 CLR
20:32 74.9 °F 52.7 °F 29.83 in Calm     46 % 0.00 in 0.0 W/m2 CLR
20:37 74.5 °F 52.9 °F 29.83 in Calm     47 % 0.00 in 0.0 W/m2 CLR
20:42 74.2 °F 52.7 °F 29.83 in Calm     47 % 0.00 in 0.0 W/m2 CLR
20:47 73.8 °F 52.9 °F 29.84 in Calm     48 % 0.00 in 0.0 W/m2 CLR
20:52 73.5 °F 52.6 °F 29.84 in Calm     48 % 0.00 in 0.0 W/m2 CLR
20:57 73.4 °F 53.1 °F 29.84 in Calm     49 % 0.00 in 0.0 W/m2 CLR
21:02 73.1 °F 52.8 °F 29.84 in Calm     49 % 0.00 in 0.0 W/m2 CLR
21:07 72.7 °F 53.0 °F 29.85 in Calm     50 % 0.00 in 0.0 W/m2 CLR
21:12 72.4 °F 53.2 °F 29.85 in Calm     51 % 0.00 in 0.0 W/m2 CLR
21:17 72.0 °F 52.9 °F 29.85 in Calm     51 % 0.00 in 0.0 W/m2 CLR
21:22 71.8 °F 53.2 °F 29.86 in Calm     52 % 0.00 in 0.0 W/m2 CLR
21:27 71.5 °F 52.9 °F 29.86 in Calm     52 % 0.00 in 0.0 W/m2 CLR
21:32 71.2 °F 53.2 °F 29.86 in Calm     53 % 0.00 in 0.0 W/m2 CLR
21:37 70.8 °F 53.3 °F 29.87 in Calm     54 % 0.00 in 0.0 W/m2 CLR
21:42 70.6 °F 53.6 °F 29.87 in Calm     55 % 0.00 in 0.0 W/m2 CLR
21:47 70.5 °F 53.1 °F 29.87 in Calm     54 % 0.00 in 0.0 W/m2 CLR
21:52 70.4 °F 53.0 °F 29.87 in Calm     54 % 0.00 in 0.0 W/m2 CLR
21:54 70.4 °F 53.0 °F 29.87 in Calm     54 % 0.00 in 0.0 W/m2 CLR
21:59 70.3 °F 52.9 °F 29.88 in Calm     54 % 0.00 in 0.0 W/m2 CLR
22:04 70.1 °F 53.2 °F 29.88 in Calm     55 % 0.00 in 0.0 W/m2 BKN
22:09 70.0 °F 53.1 °F 29.88 in Calm     55 % 0.00 in 0.0 W/m2 BKN
22:14 69.9 °F 53.0 °F 29.88 in Calm     55 % 0.00 in 0.0 W/m2 BKN
22:19 69.8 °F 53.4 °F 29.88 in Calm     56 % 0.00 in 0.0 W/m2 BKN
22:24 69.5 °F 52.6 °F 29.89 in Calm     55 % 0.00 in 0.0 W/m2 BKN
22:29 69.6 °F 52.7 °F 29.89 in Calm     55 % 0.00 in 0.0 W/m2 BKN
22:34 69.6 °F 52.7 °F 29.89 in Calm     55 % 0.00 in 0.0 W/m2 BKN
22:39 69.6 °F 52.7 °F 29.89 in Calm     55 % 0.00 in 0.0 W/m2 BKN
22:44 69.5 °F 52.6 °F 29.89 in Calm     55 % 0.00 in 0.0 W/m2 BKN
22:49 69.5 °F 52.6 °F 29.89 in Calm     55 % 0.00 in 0.0 W/m2 BKN
22:54 69.4 °F 52.5 °F 29.89 in WSW 0.1 mph 2.3 mph 55 % 0.00 in 0.0 W/m2 BKN
22:59 69.3 °F 52.9 °F 29.90 in Calm   3.5 mph 56 % 0.00 in 0.0 W/m2 BKN
23:04 69.2 °F 52.8 °F 29.90 in WSW 0.6 mph 3.5 mph 56 % 0.00 in 0.0 W/m2 OVC
23:09 69.0 °F 53.1 °F 29.90 in Calm   3.5 mph 57 % 0.00 in 0.0 W/m2 OVC
23:19 68.8 °F 52.9 °F 29.90 in Calm   2.3 mph 57 % 0.00 in 0.0 W/m2 OVC
23:24 68.7 °F 52.8 °F 29.90 in Calm   2.3 mph 57 % 0.00 in 0.0 W/m2 OVC
23:29 68.7 °F 52.8 °F 29.91 in Calm   3.5 mph 57 % 0.00 in 0.0 W/m2 OVC
23:35 68.6 °F 53.2 °F 29.91 in Calm   3.5 mph 58 % 0.00 in 0.0 W/m2 OVC
23:40 68.6 °F 53.2 °F 29.91 in WSW 0.5 mph 3.5 mph 58 % 0.00 in 0.0 W/m2 OVC
23:45 68.6 °F 53.2 °F 29.91 in Calm   3.5 mph 58 % 0.00 in 0.0 W/m2 OVC
23:50 68.6 °F 53.2 °F 29.91 in Calm   4.0 mph 58 % 0.00 in 0.0 W/m2 OVC
23:55 68.5 °F 53.1 °F 29.91 in Calm   3.5 mph 58 % 0.00 in 0.0 W/m2 OVC
23:56 68.5 °F 53.1 °F 29.91 in Calm   3.5 mph 58 % 0.00 in 0.0 W/m2 OVC
Air Products Campus Weather
Compliments of Weather Underground - 3.5 mb